[[{"header":{"parameterUnit":"m.s-1","parameterCategory":1,"la1":30.2991,"la2":30.254,"lo1":-89.0895,"lo2":-89.0444,"dy":0.0017,"dx":0.0017,"nx":28,"ny":28,"refTime":"2023-07-21T03:00:00:Z","depth":0,"parameterNumber":2,"parameterNumberName":"U-component_of_WINDS"},"data":[0,0,0,0,0,0,0,0,0,0,0,0,0,0,0,0,0,0,0,0,0,0,0,0,0,0,0,0,0,0,0,0,0,0,0,0,0,0,0,0,0,0,0,0,0,0,0,0,0,0,0,0,0,0,0,0,0,0,1.3425,1.3426,0,1.3548,1.3549,1.3551,1.3588,1.3587,1.3587,1.3586,1.3711,1.3715,1.3719,0,0,0,0,0,0,0,0,0,0,0,0,0,1.3219,1.3223,1.3424,1.3426,1.3428,1.3547,1.3549,1.3551,1.3588,1.3587,1.3586,1.3586,1.371,1.3714,1.3719,0,0,0,0,0,0,0,0,0,0,0,0,0,1.3322,1.3224,1.3424,1.3461,1.3465,1.3547,1.3549,1.3551,1.3588,1.3587,1.3586,1.3585,1.3708,1.3714,1.372,1.3774,0,0,1.3738,1.374,0,0,0,0,0,0,0,0,1.3316,1.3329,1.3454,1.3458,1.3463,1.3552,1.3523,1.3626,1.3588,1.3541,1.3586,1.3585,1.3659,1.3669,1.3694,1.378,1.3786,1.3738,1.3742,1.3744,1.3746,0,0,0,0,0,0,0,1.3309,1.3324,1.3473,1.3455,1.3461,1.347,1.3484,1.3542,1.3604,1.3545,1.3548,1.3562,1.3661,1.3688,1.3697,1.3787,1.3738,1.3743,1.3747,1.3749,1.3924,1.3925,0,0,0,0,0,0,1.3296,1.3318,1.3469,1.3477,1.3386,1.3474,1.349,1.3524,1.3603,1.3614,1.3563,1.3564,1.3678,1.369,1.3701,1.377,1.3744,1.375,1.3753,1.3922,1.3924,1.3925,0,0,0,0,0,0,1.3291,1.3309,1.3464,1.3398,1.3419,1.3479,1.3517,1.3527,1.3554,1.3617,1.3627,1.3579,1.3678,1.3693,1.3756,1.3774,1.3752,1.3758,1.3921,1.3923,1.3924,1.3907,0,0,0,0,0,0,1.3285,1.3307,1.3329,1.3399,1.3422,1.3517,1.3519,1.353,1.3564,1.3566,1.3635,1.3645,1.3679,1.3747,1.3761,1.3782,1.3762,1.392,1.3922,1.3924,1.3906,1.3908,1.3909,0,0,0,0,0,1.3278,1.3319,1.333,1.3348,1.3451,1.3518,1.3531,1.3569,1.3565,1.3587,1.3627,1.3643,1.377,1.3753,1.377,1.3792,1.3919,1.3921,1.3924,1.3905,1.3907,1.3909,0,0,0,0,0,0,1.325,1.3329,1.3342,1.3407,1.3456,1.3524,1.3553,1.3571,1.3621,1.3621,1.3665,1.368,1.3739,1.3772,1.3752,1.3849,1.3845,1.3851,1.3825,1.3827,1.3829,1.3819,1.3767,0,0,0,0,0,1.3251,1.33,1.3366,1.3417,1.3441,1.3493,1.3523,1.3548,1.36,1.3621,1.3666,1.3715,1.3766,1.3799,1.3849,1.3911,1.3926,1.3935,1.3936,1.3937,1.3942,1.3976,1.398,1.3933,1.3933,1.3933,0,0,1.3255,1.3304,1.3332,1.3413,1.3453,1.3502,1.351,1.3561,1.3597,1.3629,1.369,1.3725,1.3783,1.3845,1.3874,1.3874,1.3958,1.3941,1.3941,1.3945,1.3979,1.3983,1.3987,1.3935,1.3935,1.3934,0,0,1.3286,1.3328,1.3375,1.3415,1.3477,1.3511,1.3522,1.3588,1.3612,1.3675,1.3699,1.3742,1.3829,1.3869,1.3901,1.3946,1.3962,1.3961,1.3969,1.4002,1.4005,1.4009,1.4024,1.4029,1.3966,1.3966,1.3966,0,1.3282,1.3357,1.3397,1.3447,1.3481,1.3512,1.3559,1.3596,1.367,1.3693,1.3692,1.3801,1.3842,1.3913,1.3924,1.3949,1.3963,1.3953,1.4002,1.4006,1.4009,1.4024,1.403,1.3965,1.3965,1.3965,1.3965,0,1.3348,1.34,1.343,1.3501,1.3539,1.3587,1.3634,1.3667,1.3688,1.3722,1.3785,1.3835,1.3896,1.3915,1.3936,1.3989,1.3987,1.3993,1.399,1.4013,1.4027,1.4033,1.3964,1.3964,1.3965,1.3965,0,0,1.3365,1.3458,1.3468,1.35,1.357,1.361,1.3659,1.3718,1.3745,1.3796,1.3837,1.391,1.3916,1.3952,1.3978,1.4006,1.4037,1.4009,1.4011,1.4012,1.4097,1.4091,1.4097,1.4048,1.405,1.4051,1.4092,0,1.3404,1.3494,1.3531,1.3603,1.365,1.3679,1.3722,1.3769,1.3801,1.3846,1.3882,1.3932,1.3937,1.3958,1.3988,1.4027,1.4055,1.4025,1.4087,1.4088,1.407,1.4105,1.41,1.4136,1.4098,1.4099,1.41,0,1.3462,1.3512,1.3589,1.3652,1.3673,1.371,1.3767,1.381,1.3863,1.3885,1.3924,1.3949,1.4,1.3994,1.4065,1.4044,1.4071,1.4094,1.4096,1.4103,1.4095,1.4112,1.4149,1.4154,1.4109,1.4109,1.4108,0,1.3465,1.3552,1.3609,1.3636,1.3711,1.3736,1.3769,1.3821,1.3854,1.3904,1.3925,1.398,1.401,1.4052,1.409,1.4082,1.4157,1.4154,1.4176,1.4175,1.419,1.4188,1.4231,1.4209,1.4209,1.4208,1.4208,0,1.3504,1.355,1.3611,1.3646,1.3697,1.3739,1.3789,1.3823,1.3869,1.391,1.394,1.3977,1.4026,1.407,1.41,1.4154,1.4168,1.4186,1.4193,1.4183,1.418,1.4201,1.4199,1.421,1.421,1.4209,1.4209,0,1.3517,1.356,1.3623,1.3689,1.3707,1.3741,1.3797,1.3832,1.3866,1.3918,1.3932,1.3985,1.4038,1.4081,1.415,1.4171,1.4227,1.4235,1.4209,1.4212,1.4231,1.4228,1.4288,1.4297,1.4269,1.4269,1.427,0,1.3538,1.3574,1.3643,1.3673,1.3705,1.3753,1.3787,1.3829,1.3863,1.3926,1.3952,1.4008,1.4054,1.4138,1.4182,1.4235,1.4245,1.4262,1.4253,1.4241,1.4244,1.4241,1.4244,1.4263,1.4263,1.4263,1.4263,0,1.3572,1.3592,1.364,1.3695,1.3734,1.378,1.3826,1.3848,1.3899,1.3935,1.399,1.4026,1.4097,1.4151,1.4208,1.4241,1.426,1.4265,1.4273,1.4262,1.4245,1.4254,1.4211,1.4264,1.4264,1.4264,1.4264,1.4263,1.3589,1.3622,1.3676,1.3728,1.3767,1.3809,1.3844,1.3883,1.3929,1.399,1.4012,1.4068,1.4119,1.4199,1.4232,1.4275,1.4277,1.4288,1.4291,1.4293,1.4291,1.4239,1.4286,1.4286,1.4286,1.4286,1.4286,0,1.3624,1.366,1.3707,1.3771,1.3811,1.3826,1.3878,1.391,1.396,1.4006,1.4051,1.4113,1.4166,1.4214,1.4269,1.4294,1.4304,1.4307,1.4305,1.4312,1.4287,1.4275,1.4298,1.4298,1.4298,1.4298,1.4298,1.4298,1.3647,1.3702,1.3728,1.3803,1.3838,1.3894,1.3922,1.396,1.3997,1.4066,1.411,1.4141,1.4188,1.4246,1.4294,1.4307,1.4325,1.4326,1.4341,1.4316,1.4314,1.4313,1.4301,1.433,1.433,1.4362,1.4362,1.4363]},{"header":{"parameterUnit":"m.s-1","parameterCategory":1,"la1":30.2991,"la2":30.254,"lo1":-89.0895,"lo2":-89.0444,"dy":0.0017,"dx":0.0017,"nx":28,"ny":28,"refTime":"2023-07-21T03:00:00:Z","depth":0,"parameterNumber":3,"parameterNumberName":"V-component_of_WINDS"},"data":[0,0,0,0,0,0,0,0,0,0,0,0,0,0,0,0,0,0,0,0,0,0,0,0,0,0,0,0,0,0,0,0,0,0,0,0,0,0,0,0,0,0,0,0,0,0,0,0,0,0,0,0,0,0,0,0,0,0,4.8221,4.8221,0,4.8183,4.8183,4.8182,4.8095,4.8093,4.8091,4.809,4.8052,4.8052,4.8053,0,0,0,0,0,0,0,0,0,0,0,0,0,4.8219,4.822,4.8221,4.8221,4.8221,4.8183,4.8183,4.8182,4.8095,4.8093,4.8091,4.8089,4.8052,4.8052,4.8053,0,0,0,0,0,0,0,0,0,0,0,0,0,4.8205,4.822,4.8222,4.8173,4.8168,4.8184,4.8183,4.8182,4.8096,4.8093,4.809,4.8088,4.8051,4.8052,4.8053,4.8114,0,0,4.8056,4.8057,0,0,0,0,0,0,0,0,4.8206,4.8205,4.818,4.8176,4.8171,4.8141,4.8168,4.8159,4.8096,4.8123,4.809,4.8086,4.8084,4.8082,4.8081,4.8112,4.8111,4.8057,4.8057,4.8058,4.8058,0,0,0,0,0,0,0,4.8207,4.8206,4.8206,4.818,4.8174,4.8153,4.8148,4.8166,4.8119,4.8121,4.8114,4.8111,4.8081,4.808,4.8079,4.811,4.8057,4.8057,4.8058,4.8058,4.8188,4.819,0,0,0,0,0,0,4.8215,4.8208,4.8208,4.8205,4.8182,4.8155,4.8149,4.8153,4.8119,4.8111,4.8113,4.8107,4.808,4.8078,4.8078,4.8145,4.8058,4.8059,4.8059,4.8185,4.8188,4.8191,0,0,0,0,0,0,4.8215,4.8216,4.8209,4.8205,4.8202,4.8158,4.8163,4.8154,4.8153,4.8113,4.8104,4.8121,4.8077,4.8076,4.8105,4.8142,4.8059,4.806,4.8182,4.8186,4.819,4.8281,0,0,0,0,0,0,4.8215,4.8216,4.8239,4.8206,4.8203,4.8237,4.8165,4.8155,4.8155,4.8146,4.8118,4.8111,4.8075,4.8104,4.8106,4.8142,4.8061,4.8178,4.8183,4.8188,4.8275,4.8288,4.8299,0,0,0,0,0,4.8216,4.8267,4.824,4.8241,4.823,4.824,4.8238,4.8195,4.8159,4.8181,4.8155,4.8112,4.8138,4.8108,4.8109,4.8146,4.8175,4.8182,4.8188,4.8269,4.8285,4.8299,0,0,0,0,0,0,4.8306,4.8261,4.8232,4.8274,4.8261,4.8225,4.8252,4.8214,4.8212,4.8205,4.8152,4.8147,4.8182,4.8167,4.8134,4.8203,4.815,4.8157,4.8211,4.8226,4.8238,4.824,4.8062,0,0,0,0,0,4.8331,4.8342,4.8303,4.8343,4.8338,4.8297,4.8299,4.8267,4.8253,4.8247,4.8223,4.821,4.8215,4.822,4.8223,4.8272,4.8264,4.8299,4.8311,4.8321,4.8328,4.8351,4.8366,4.8212,4.8212,4.8212,0,0,4.8382,4.8359,4.8369,4.8361,4.8347,4.836,4.8293,4.8309,4.8318,4.825,4.8275,4.8257,4.8239,4.8279,4.8295,4.8267,4.8368,4.833,4.8338,4.8339,4.8359,4.8374,4.8387,4.8216,4.8216,4.8215,0,0,4.8481,4.8466,4.8497,4.8485,4.8465,4.8436,4.8444,4.8414,4.8399,4.8423,4.8372,4.8382,4.8392,4.8381,4.8377,4.8472,4.8432,4.8475,4.8539,4.8563,4.8575,4.8585,4.8618,4.863,4.8481,4.8482,4.8482,0,4.8547,4.8564,4.8518,4.8538,4.8535,4.8473,4.8504,4.8495,4.8477,4.8477,4.8446,4.8457,4.8441,4.8476,4.8499,4.8499,4.8505,4.8477,4.8577,4.8587,4.8596,4.8626,4.8639,4.8487,4.8486,4.8486,4.8485,0,4.8646,4.8659,4.8686,4.867,4.8671,4.8696,4.8654,4.866,4.8628,4.8603,4.8629,4.8607,4.8604,4.861,4.858,4.8641,4.8624,4.8586,4.8532,4.8616,4.8644,4.8655,4.8494,4.8492,4.8491,4.849,0,0,4.88,4.8758,4.8769,4.876,4.8733,4.8742,4.8765,4.8761,4.8767,4.8757,4.8774,4.8784,4.8749,4.8744,4.8712,4.8733,4.8808,4.8692,4.8691,4.8713,4.8872,4.8899,4.8913,4.8782,4.8784,4.8785,4.8873,0,4.8892,4.8928,4.8886,4.8931,4.8941,4.8882,4.8902,4.8888,4.8865,4.8871,4.8845,4.8853,4.8806,4.8803,4.8821,4.8795,4.8839,4.8788,4.8796,4.8797,4.8801,4.8928,4.8957,4.9041,4.8883,4.8885,4.8886,0,4.9004,4.8998,4.9044,4.9013,4.9016,4.9034,4.9027,4.9033,4.9016,4.8998,4.8993,4.8954,4.8973,4.8922,4.8948,4.8914,4.8915,4.8903,4.8905,4.8903,4.8846,4.8928,4.9066,4.9079,4.8903,4.8902,4.8901,0,4.911,4.9114,4.9141,4.9136,4.9102,4.9116,4.9102,4.9082,4.9082,4.9076,4.9075,4.9072,4.907,4.9068,4.9029,4.8995,4.9059,4.9005,4.9044,4.9045,4.9059,4.9058,4.9198,4.9063,4.9063,4.9062,4.9062,0,4.9216,4.9246,4.9188,4.9205,4.9236,4.9189,4.9221,4.9201,4.9184,4.9195,4.9145,4.9157,4.9106,4.9112,4.9082,4.9107,4.9107,4.9092,4.9084,4.9096,4.9098,4.9095,4.9088,4.9066,4.9065,4.9064,4.9064,0,4.934,4.9303,4.9328,4.9293,4.9285,4.9309,4.9279,4.9293,4.9267,4.9282,4.9283,4.9242,4.9247,4.9208,4.9207,4.9186,4.9225,4.9207,4.9231,4.9224,4.9265,4.9261,4.9407,4.9423,4.9279,4.928,4.9282,0,4.9409,4.943,4.9398,4.9401,4.939,4.9397,4.9396,4.9351,4.9352,4.9334,4.935,4.935,4.9348,4.9359,4.9329,4.9326,4.9307,4.9358,4.9306,4.9318,4.9306,4.9305,4.9306,4.9369,4.9371,4.9372,4.9373,0,4.9536,4.9516,4.9517,4.9511,4.9512,4.9506,4.9496,4.9502,4.9452,4.9457,4.946,4.9459,4.9456,4.9457,4.9449,4.9435,4.9396,4.939,4.9399,4.9411,4.9423,4.9415,4.9258,4.9387,4.9385,4.9384,4.9383,4.9383,4.9633,4.9648,4.9627,4.963,4.9618,4.961,4.962,4.9595,4.9598,4.9591,4.9565,4.9573,4.9554,4.9539,4.9529,4.9535,4.951,4.9523,4.9526,4.9529,4.9536,4.9423,4.9533,4.9533,4.9532,4.9532,4.9532,0,4.9755,4.9739,4.9742,4.9729,4.9731,4.9694,4.9681,4.9685,4.9693,4.9679,4.9678,4.9682,4.9682,4.9653,4.9649,4.9659,4.9641,4.966,4.9658,4.9655,4.9559,4.9551,4.9675,4.9675,4.9675,4.9674,4.9674,4.9674,4.9819,4.9843,4.9821,4.9838,4.9821,4.9829,4.9824,4.9816,4.9804,4.9811,4.9811,4.9792,4.9771,4.9765,4.9764,4.9755,4.9755,4.978,4.9765,4.9676,4.9662,4.9649,4.9641,4.9781,4.9781,4.986,4.9861,4.9861]}]]